Flag for U.S.A. Weather past 2 weeks in Fort Myers, Florida, U.S.A.

Now
75 °F

Sunny.


Feels Like: 75 °F
Forecast: 73 / 90 °F
Wind: 7 mph from Southeast

Location: Page Field

Current Time: May 27, 2015 at 9:00:39 AM

Latest Report: May 27, 2015 at 7:53 AM


Visibility: 10 mi

Pressure: 30.13 "Hg

Humidity: 85%

Dew point: 70 °F

Location of Fort MyersLocation

Historic Weather in Fort Myers — Graph

°F

Fort Myers temperature yesterday

Maximum temperature yesterday: 93 °F (at 1:53 PM)
Minimum temperature yesterday: 75 °F (at 3:53 AM)
Average temperature yesterday: 82 °F

Past Weeks' High & Low Weather Summary

 TemperatureHumidityPressure
High93 °F (May 13, 2:53 PM)100% (May 13, 3:53 AM)30.20 "Hg (May 13, 3:53 AM)
Low70 °F (May 13, 3:53 AM)33% (May 15, 4:53 PM)29.94 "Hg (May 20, 5:53 PM)
Average80 °F74%30.10 "Hg
* Reported May 12 7:53 AM — May 27 7:53 AM, Fort Myers, Weather by CustomWeather, © 2015

Note: Actual official high and low records may vary slightly from our data, if they occured in-between our weather recording intervals... More about our weather records

Advertising

Fort Myers weather history for previous 24 hours

 ConditionsComfort  
Time TempWeatherWind HumidityBarometerVisibility
7:53 AM
Wed, May 27
75 °FSunny.7 mph85%30.13 "Hg10 mi
6:53 AM73 °FPassing clouds.7 mph88%30.12 "Hg10 mi
5:53 AM73 °FClear.No wind88%30.11 "Hg10 mi
4:53 AM74 °FClear.5 mph88%30.09 "Hg10 mi
3:53 AM75 °FClear.7 mph85%30.10 "Hg10 mi
2:53 AM75 °FClear.8 mph85%30.11 "Hg10 mi
1:53 AM76 °FClear.5 mph80%30.15 "Hg10 mi
12:53 AM77 °FPassing clouds.5 mph77%30.17 "Hg10 mi
11:53 PM
Tue, May 26
79 °FOvercast.7 mph69%30.18 "Hg10 mi
10:53 PM80 °FPassing clouds.6 mph64%30.15 "Hg10 mi
9:53 PM81 °FOvercast.7 mph67%30.14 "Hg10 mi
8:53 PM81 °FMostly cloudy.8 mph85%30.11 "Hg10 mi
7:53 PM83 °FThunderstorms. Partly sunny.3 mph70%30.10 "Hg10 mi
6:53 PM84 °FBroken clouds.6 mph70%30.09 "Hg10 mi
5:53 PM84 °FLight rain. Broken clouds.7 mph74%30.08 "Hg10 mi
4:53 PM83 °FBroken clouds.7 mph70%30.09 "Hg10 mi
3:53 PM92 °FSunny.10 mph44%30.09 "Hg10 mi
2:53 PM93 °FPassing clouds.13 mph44%30.10 "Hg10 mi
1:53 PM93 °FPassing clouds.10 mph44%30.12 "Hg10 mi
12:53 PM89 °FScattered clouds.8 mph53%30.15 "Hg10 mi
11:53 AM89 °FPassing clouds.13 mph57%30.16 "Hg10 mi
10:53 AM87 °FScattered clouds.13 mph61%30.17 "Hg10 mi
9:53 AM84 °FScattered clouds.12 mph70%30.18 "Hg10 mi
Weather by CustomWeather, © 2015

See weather overviewHow to use our weather pages